DW7322 Weather Reports


Display with metric or nautical units.
time (UTC)temp
F
wind
direction
speed
MPH
gust
MPH
rain 1hr
in
rain 24hr
in
rain mn
in
humidity
%
barometer
mb
20260507164544 58 207 2.0 6.0 0.00 0.00 0.00 44 1014.2
20260507163004 57 236 1.0 6.0 0.00 0.00 0.00 44 1014.6
20260507161527 58 202 1.0 8.0 0.00 0.00 0.00 43 1014.6
20260507160042 57 218 0.0 7.0 0.00 0.00 0.00 45 1014.8
20260507154535 57 209 0.0 4.0 0.00 0.00 0.00 47 1015.1
20260507153051 56 233 1.0 4.0 0.00 0.00 0.00 45 1015.3
20260507151506 55 206 0.0 4.0 0.00 0.00 0.00 44 1015.4
20260507150120 54 191 0.0 2.0 0.00 0.00 0.00 46 1015.6
20260507144510 53 267 0.0 1.0 0.00 0.00 0.00 51 1016.0
20260507143034 52 224 0.0 1.0 0.00 0.00 0.00 52 1016.3
20260507141541 51 256 0.0 1.0 0.00 0.00 0.00 53 1016.5
20260507140107 49 262 0.0 1.0 0.00 0.00 0.00 59 1016.6
20260507134557 48 224 0.0 1.0 0.00 0.00 0.00 57 1016.6
20260507133017 46 248 0.0 1.0 0.00 0.00 0.00 62 1016.7
20260507131548 45 194 0.0 1.0 0.00 0.00 0.00 62 1016.6
20260507130105 43 221 0.0 1.0 0.00 0.00 0.00 67 1016.8
20260507124548 41 221 0.0 1.0 0.00 0.00 0.00 72 1017.1
20260507123057 39 306 0.0 0.0 0.00 0.00 0.00 77 1016.9
20260507121513 36 304 0.0 0.0 0.00 0.00 0.00 85 1016.7
20260507120120 35 304 0.0 0.0 0.00 0.00 0.00 88 1016.5
20260507114524 33 304 0.0 0.0 0.00 0.00 0.00 89 1016.4
20260507113040 32 304 0.0 0.0 0.00 0.00 0.00 87 1016.3
20260507111508 31 304 0.0 0.0 0.00 0.00 0.00 88 1016.3
20260507110003 31 304 0.0 0.0 0.00 0.00 0.00 88 1016.3
20260507104529 31 304 0.0 0.0 0.00 0.00 0.00 87 1016.3
20260507103045 31 304 0.0 0.0 0.00 0.00 0.00 87 1016.3
20260507101513 30 304 0.0 0.0 0.00 0.00 0.00 88 1016.3
20260507100009 30 304 0.0 0.0 0.00 0.00 0.00 86 1016.4
20260507094537 30 304 0.0 0.0 0.00 0.00 0.00 86 1016.5
20260507093054 31 304 0.0 0.0 0.00 0.00 0.00 85 1016.5
20260507091508 31 304 0.0 0.0 0.00 0.00 0.00 83 1016.5
20260507090125 33 304 0.0 0.0 0.00 0.00 0.00 82 1016.5
20260507084518 34 304 0.0 0.0 0.00 0.00 0.00 80 1016.5
20260507083044 33 304 0.0 0.0 0.00 0.00 0.00 81 1016.4
20260507081525 34 304 0.0 0.0 0.00 0.00 0.00 82 1016.4
20260507080037 34 304 0.0 0.0 0.00 0.00 0.00 83 1016.5
20260507074549 34 304 0.0 0.0 0.00 0.00 0.00 82 1016.6
20260507073052 34 304 0.0 0.0 0.00 0.00 0.00 81 1016.6
20260507071514 34 304 0.0 0.0 0.00 0.00 0.00 82 1016.7
20260507070014 34 304 0.0 0.0 0.00 0.00 0.00 83 1016.8
20260507064528 34 304 0.0 0.0 0.00 0.00 0.00 83 1016.8
20260507063056 34 304 0.0 0.0 0.00 0.00 0.00 83 1016.9
20260507061517 34 304 0.0 0.0 0.00 0.00 0.00 82 1017.0
20260507060044 34 304 0.0 0.0 0.00 0.00 0.00 81 1017.0
20260507054616 34 304 0.0 0.0 0.00 0.00 0.00 82 1017.0
20260507053101 33 304 0.0 0.0 0.00 0.00 0.00 82 1016.9
20260507051522 34 304 0.0 0.0 0.00 0.00 0.00 80 1016.8
20260507050128 35 304 0.0 0.0 0.00 0.00 0.00 79 1016.9
20260507044516 36 304 0.0 0.0 0.00 0.00 0.00 77 1016.8
20260507043044 36 304 0.0 0.0 0.00 0.00 0.00 74 1016.8
20260507041601 37 304 0.0 0.0 0.00 0.00 0.00 71 1016.9
20260507040118 38 304 0.0 0.0 0.00 0.00 0.00 71 1016.7
20260507034513 39 304 0.0 0.0 0.00 0.00 0.00 70 1016.7
20260507033037 39 304 0.0 0.0 0.00 0.00 0.00 68 1016.8
20260507031502 40 304 0.0 0.0 0.00 0.00 0.00 69 1016.8
20260507030123 41 304 0.0 0.0 0.00 0.00 0.00 69 1016.8
20260507024524 42 304 0.0 0.0 0.00 0.00 0.00 68 1016.6
20260507023029 42 304 0.0 0.0 0.00 0.00 0.00 66 1016.5
20260507021557 43 304 0.0 0.0 0.00 0.00 0.00 62 1016.3
20260507020116 43 306 0.0 0.0 0.00 0.00 0.00 60 1016.1
20260507014530 44 304 0.0 1.0 0.00 0.00 0.00 57 1016.1
20260507013032 44 305 0.0 1.0 0.00 0.00 0.00 57 1016.0
20260507011601 45 305 0.0 1.0 0.00 0.00 0.00 54 1015.9
20260507010119 46 305 0.0 1.0 0.00 0.00 0.00 52 1015.9
20260507004516 47 312 0.0 2.0 0.00 0.00 0.00 50 1015.8
20260507003033 48 332 0.0 3.0 0.00 0.00 0.00 49 1015.8
20260507001557 49 306 0.0 4.0 0.00 0.00 0.00 49 1015.7
20260507000111 50 300 1.0 5.0 0.00 0.00 0.00 48 1015.4
20260506234557 51 306 0.0 4.0 0.00 0.00 0.00 49 1015.4
20260506233017 51 305 1.0 7.0 0.00 0.00 0.00 48 1015.3
20260506231534 52 307 0.0 11.0 0.00 0.00 0.00 46 1015.2
20260506230056 52 322 0.0 5.0 0.00 0.00 0.00 46 1015.0
20260506224550 53 279 1.0 6.0 0.00 0.00 0.00 44 1014.9
20260506223016 53 323 1.0 6.0 0.00 0.00 0.00 45 1014.8
20260506221533 52 291 0.0 5.0 0.00 0.00 0.00 45 1014.6
20260506220059 53 314 2.0 9.0 0.00 0.00 0.00 44 1014.6
20260506214554 53 357 1.0 6.0 0.00 0.00 0.00 46 1014.4
20260506213016 54 310 1.0 8.0 0.00 0.00 0.00 43 1014.5
20260506211534 54 309 4.0 9.0 0.00 0.00 0.00 43 1014.5
20260506210056 54 305 2.0 7.0 0.00 0.00 0.00 43 1014.4
20260506204549 55 283 1.0 10.0 0.00 0.00 0.00 42 1014.3
20260506203007 54 322 1.0 6.0 0.00 0.00 0.00 45 1014.5
20260506201525 56 319 2.0 5.0 0.00 0.00 0.00 41 1014.4
20260506200048 57 276 2.0 6.0 0.00 0.00 0.00 44 1014.4
20260506194543 57 120 2.0 5.0 0.00 0.00 0.00 42 1014.6
20260506193107 57 267 1.0 3.0 0.00 0.00 0.00 39 1014.7
20260506191524 57 261 3.0 8.0 0.00 0.00 0.00 42 1014.8
20260506190046 57 253 1.0 5.0 0.00 0.00 0.00 41 1014.7
20260506184538 57 21 2.0 9.0 0.00 0.00 0.00 37 1014.6
20260506183057 57 319 1.0 6.0 0.00 0.00 0.00 39 1014.6
20260506181518 56 316 2.0 6.0 0.00 0.00 0.00 39 1014.6
20260506180010 55 316 2.0 5.0 0.00 0.00 0.00 41 1014.7
20260506174530 57 295 1.0 5.0 0.00 0.00 0.00 41 1014.6
20260506173044 56 316 1.0 5.0 0.00 0.00 0.00 43 1014.9
20260506171604 54 280 0.0 6.0 0.00 0.00 0.00 49 1014.9
20260506171507 54 298 1.0 6.0 0.00 0.00 0.00 44 1014.9
20260506170120 54 286 0.0 6.0 0.00 0.00 0.00 46 1014.9